User: anonymous   Login
Location: Banff
(51.1667°N, 115.5667°W)
Time: 05:59:20
(UTC+00:00)
Language:

ISS - Orbit

View from above orbital plane
View from above orbital plane
View from above satellite
View from above satellite

Ground track
Ground track

The orbit data is extracted from the following two-line orbital elements,

1 25544U 98067A   23028.03913194  .00021754  00000-0  38481-3 0  9991
2 25544  51.6443 302.7162 0004959 283.9554 258.9968 15.50234023380057
Epoch (UTC): 28 January 2023 00:56:21
Eccentricity: 0.0004959
inclination: 51.6443°
perigee height: 412 km
apogee height: 419 km
right ascension of ascending node: 302.7162°
argument of perigee: 283.9554°
revolutions per day: 15.50234023
mean anomaly at epoch: 258.9968°
orbit number at epoch: 38005

The dashed part of the orbit path shows where the satellite is in the earth's shadow,  

DLR